This is the latest recevied weather packets stored in our database for station/object W4FXD. If no packets are shown the sender has not sent any weather packets the latest 10 day(s).
| Time | Temp. | Humidity | Pressure | Rain* | Wind** | Luminosity | Snow |
|---|---|---|---|---|---|---|---|
| 1778031480 | 21.11° C | 49% | 1011.4 hPa | 0 mm | - | 0 W/m² | - |
| 1778031177 | 21.11° C | 50% | 1010.9 hPa | 0 mm | - | 0 W/m² | - |
| 1778030874 | 21.67° C | 49% | 1011 hPa | 0 mm | - | 0 W/m² | - |
| 1778030571 | 21.67° C | 48% | 1010.9 hPa | 0 mm | - | 0 W/m² | - |
| 1778030268 | 21.67° C | 48% | 1011 hPa | 0 mm | - | 0 W/m² | - |
| 1778029964 | 21.67° C | 47% | 1010.7 hPa | 0 mm | - | 0 W/m² | - |
| 1778029663 | 22.22° C | 47% | 1010.8 hPa | 0 mm | - | 0 W/m² | - |
| 1778029360 | 21.67° C | 47% | 1010.8 hPa | 0 mm | - | 0 W/m² | - |
| 1778029057 | 21.67° C | 47% | 1010.8 hPa | 0 mm | - | 0 W/m² | - |
| 1778028754 | 22.22° C | 46% | 1010.7 hPa | 0 mm | - | 0 W/m² | - |
| 1778028449 | 22.22° C | 45% | 1010.9 hPa | 0 mm | - | 0 W/m² | - |
| 1778028147 | 22.22° C | 46% | 1010.6 hPa | 0 mm | - | 0 W/m² | - |
| 1778027843 | 22.22° C | 46% | 1010.8 hPa | 0 mm | - | 0 W/m² | - |
| 1778027540 | 22.22° C | 45% | 1011.2 hPa | 0 mm | - | 0 W/m² | - |
| 1778027236 | 22.22° C | 45% | 1011.5 hPa | 0 mm | - | 0 W/m² | - |
| 1778026932 | 22.22° C | 45% | 1011.4 hPa | 0 mm | - | 1 W/m² | - |
| 1778026628 | 22.22° C | 45% | 1011.3 hPa | 0 mm | - | 3 W/m² | - |
| 1778026326 | 22.78° C | 45% | 1011.3 hPa | 0 mm | - | 5 W/m² | - |
| 1778026022 | 22.78° C | 45% | 1011.4 hPa | 0 mm | - | 7 W/m² | - |
| 1778025720 | 22.78° C | 45% | 1011.4 hPa | 0 mm | - | 7 W/m² | - |
| 1778025417 | 22.78° C | 45% | 1011.3 hPa | 0 mm | - | 11 W/m² | - |
| 1778025115 | 22.78° C | 45% | 1011.5 hPa | 0 mm | - | 16 W/m² | - |
| 1778024811 | 22.78° C | 46% | 1011.3 hPa | 0 mm | - | 19 W/m² | - |
| 1778024508 | 22.78° C | 48% | 1011.3 hPa | 0 mm | - | 22 W/m² | - |
| 1778024205 | 22.78° C | 47% | 1011.1 hPa | 0 mm | - | 20 W/m² | - |
* Rain latest hour (hover to see other rain measurements)
** Current wind speed in m/s (hover to see current wind gust speed)